Terminal Aerodrome Forecast
Issued by NWS Lubbock, TX

Home | Current Version | Previous Version | Text Only | Print | Product List | Glossary On
Versions: 1 2 3 4 5 6 7 8 9 10 11 12 13 14 15 16 17 18 19 20 21 22
000
FTUS44 KLUB 251120
TAFLBB
TAF
KLBB 251120Z 2512/2612 22013KT 2SM BCFG BKN010
     FM251700 22016G22KT P6SM FEW250
     FM260200 18012KT P6SM FEW250=

USA.gov is the U.S. government's official web portal to all federal, state and local government web resources and services.